CES919 ZSPD-ZSSS

Flight info

Callsign CES919
Flight time 0h 23m
Altitude 3000
Route JTN
Aircraft C919/M-SDE2E3FGHIRWXY/LB1

Departure

Time 2026-05-05 10:10
Airport Shanghai Pudong International Airport (ZSPD)

Arrival

Time 2026-05-05 10:33
Airport Shanghai Hongqiao International Airport (ZSSS)
Time Latitude Longitude Altitude Speed Heading
2026-05-05 09:31 31.10491 121.85129 23 ft 0 kts 161°
2026-05-05 09:43 31.10493 121.85128 23 ft 1 kts 161°
2026-05-05 09:43 31.10497 121.85126 24 ft 1 kts 161°
2026-05-05 09:43 31.10501 121.85125 26 ft 1 kts 161°
2026-05-05 09:44 31.10507 121.85122 25 ft 1 kts 161°
2026-05-05 09:44 31.10515 121.85119 24 ft 1 kts 161°
2026-05-05 09:44 31.10523 121.85116 26 ft 1 kts 161°
2026-05-05 09:44 31.10531 121.85113 24 ft 1 kts 161°
2026-05-05 09:45 31.10538 121.85110 24 ft 1 kts 156°
2026-05-05 09:45 31.10545 121.85106 25 ft 1 kts 140°
2026-05-05 09:45 31.10551 121.85101 27 ft 1 kts 124°
2026-05-05 09:45 31.10555 121.85094 25 ft 1 kts 108°
2026-05-05 09:46 31.10557 121.85088 26 ft 0 kts 88°
2026-05-05 09:46 31.10557 121.85096 25 ft 1 kts 88°
2026-05-05 09:46 31.10557 121.85105 26 ft 1 kts 85°
2026-05-05 09:46 31.10559 121.85114 25 ft 1 kts 79°
2026-05-05 09:47 31.10561 121.85123 24 ft 1 kts 73°
2026-05-05 09:47 31.10562 121.85125 24 ft 0 kts 73°
2026-05-05 09:55 31.10562 121.85126 23 ft 1 kts 73°
2026-05-05 09:55 31.10566 121.85140 23 ft 3 kts 73°
2026-05-05 09:55 31.10575 121.85176 25 ft 6 kts 72°
2026-05-05 09:55 31.10611 121.85204 23 ft 8 kts
2026-05-05 09:56 31.10671 121.85185 23 ft 10 kts 342°
2026-05-05 09:56 31.10745 121.85157 23 ft 13 kts 342°
2026-05-05 09:56 31.10837 121.85122 27 ft 15 kts 342°
2026-05-05 09:56 31.10950 121.85081 25 ft 18 kts 343°
2026-05-05 09:57 31.11073 121.85034 23 ft 20 kts 341°
2026-05-05 09:57 31.11210 121.84982 23 ft 22 kts 342°
2026-05-05 09:57 31.11362 121.84928 24 ft 23 kts 343°
2026-05-05 09:57 31.11518 121.84865 27 ft 25 kts 342°
2026-05-05 09:58 31.11687 121.84802 26 ft 26 kts 341°
2026-05-05 09:58 31.11865 121.84733 27 ft 28 kts 342°
2026-05-05 09:58 31.12052 121.84663 24 ft 29 kts 343°
2026-05-05 09:58 31.12250 121.84593 24 ft 30 kts 339°
2026-05-05 09:59 31.12453 121.84512 24 ft 31 kts 342°
2026-05-05 09:59 31.12662 121.84433 24 ft 32 kts 342°
2026-05-05 09:59 31.12870 121.84355 28 ft 30 kts 342°
2026-05-05 09:59 31.13069 121.84279 25 ft 30 kts 342°
2026-05-05 10:00 31.13267 121.84206 26 ft 31 kts 342°
2026-05-05 10:00 31.13410 121.84083 25 ft 26 kts 297°
2026-05-05 10:00 31.13493 121.83891 28 ft 27 kts 297°
2026-05-05 10:00 31.13622 121.83771 24 ft 25 kts 342°
2026-05-05 10:01 31.13764 121.83700 26 ft 18 kts 291°
2026-05-05 10:01 31.13734 121.83559 27 ft 19 kts 251°
2026-05-05 10:01 31.13689 121.83412 24 ft 20 kts 250°
2026-05-05 10:01 31.13648 121.83256 28 ft 20 kts 258°
2026-05-05 10:02 31.13606 121.83096 26 ft 21 kts 251°
2026-05-05 10:02 31.13559 121.82927 28 ft 22 kts 252°
2026-05-05 10:02 31.13545 121.82771 26 ft 17 kts 322°
2026-05-05 10:02 31.13655 121.82720 24 ft 18 kts 341°
2026-05-05 10:03 31.13779 121.82673 27 ft 20 kts 342°
2026-05-05 10:03 31.13915 121.82622 24 ft 21 kts 342°
2026-05-05 10:03 31.14059 121.82568 24 ft 22 kts 341°
2026-05-05 10:03 31.14211 121.82510 26 ft 24 kts 342°
2026-05-05 10:04 31.14370 121.82450 24 ft 25 kts 342°
2026-05-05 10:04 31.14536 121.82389 24 ft 26 kts 341°
2026-05-05 10:04 31.14707 121.82323 25 ft 26 kts 342°
2026-05-05 10:04 31.14885 121.82256 27 ft 27 kts 342°
2026-05-05 10:05 31.15069 121.82186 24 ft 28 kts 342°
2026-05-05 10:05 31.15257 121.82117 28 ft 29 kts 343°
2026-05-05 10:05 31.15448 121.82043 29 ft 29 kts 342°
2026-05-05 10:05 31.15644 121.81971 28 ft 30 kts 341°
2026-05-05 10:06 31.15843 121.81895 26 ft 30 kts 342°
2026-05-05 10:06 31.16023 121.81825 28 ft 20 kts 328°
2026-05-05 10:06 31.16041 121.81749 24 ft 0 kts 255°
2026-05-05 10:08 31.16038 121.81735 28 ft 3 kts 255°
2026-05-05 10:08 31.16029 121.81700 26 ft 6 kts 254°
2026-05-05 10:08 31.16012 121.81646 24 ft 8 kts 232°
2026-05-05 10:09 31.15958 121.81641 23 ft 9 kts 163°
2026-05-05 10:09 31.15887 121.81668 24 ft 18 kts 162°
2026-05-05 10:09 31.15509 121.81812 27 ft 97 kts 162°
2026-05-05 10:09 31.14654 121.82148 71 ft 152 kts 160°
2026-05-05 10:10 31.13648 121.82540 639 ft 160 kts 158°
2026-05-05 10:10 31.12647 121.83137 1375 ft 163 kts 149°
2026-05-05 10:10 31.11745 121.83950 2077 ft 164 kts 146°
2026-05-05 10:10 31.10861 121.84784 2748 ft 165 kts 146°
2026-05-05 10:11 31.09883 121.85649 3050 ft 193 kts 146°
2026-05-05 10:11 31.08763 121.86608 2898 ft 198 kts 147°
2026-05-05 10:11 31.07619 121.87605 3066 ft 209 kts 146°
2026-05-05 10:11 31.06451 121.88607 2999 ft 210 kts 147°
2026-05-05 10:12 31.05285 121.89611 2998 ft 208 kts 146°
2026-05-05 10:12 31.04092 121.90640 3014 ft 223 kts 146°
2026-05-05 10:12 31.02841 121.91710 3000 ft 222 kts 146°
2026-05-05 10:12 31.01594 121.92774 3001 ft 223 kts 146°
2026-05-05 10:13 31.00265 121.93658 2992 ft 219 kts 167°
2026-05-05 10:13 30.98768 121.93629 2995 ft 218 kts 202°
2026-05-05 10:13 30.97545 121.92586 3014 ft 221 kts 223°
2026-05-05 10:13 30.96470 121.91318 2999 ft 221 kts 223°
2026-05-05 10:14 30.95395 121.90027 3004 ft 223 kts 224°
2026-05-05 10:14 30.94317 121.88747 3004 ft 221 kts 224°
2026-05-05 10:14 30.93461 121.87275 2994 ft 224 kts 252°
2026-05-05 10:14 30.93510 121.85441 2999 ft 234 kts 288°
2026-05-05 10:15 30.94177 121.83676 2997 ft 238 kts 291°
2026-05-05 10:15 30.94874 121.81933 2991 ft 238 kts 291°
2026-05-05 10:15 30.95566 121.80172 2996 ft 238 kts 291°
2026-05-05 10:15 30.96251 121.78428 2995 ft 237 kts 291°
2026-05-05 10:16 30.96941 121.76675 2993 ft 238 kts 291°
2026-05-05 10:16 30.97634 121.74927 2995 ft 238 kts 291°
2026-05-05 10:16 30.98324 121.73175 2997 ft 238 kts 291°
2026-05-05 10:16 30.98982 121.71406 2996 ft 238 kts 288°
2026-05-05 10:17 30.99586 121.69615 2991 ft 237 kts 288°
2026-05-05 10:17 31.00191 121.67830 2997 ft 237 kts 288°
2026-05-05 10:17 31.00795 121.66045 2993 ft 237 kts 288°
2026-05-05 10:17 31.01399 121.64262 2996 ft 236 kts 288°
2026-05-05 10:18 31.01995 121.62496 2996 ft 237 kts 288°
2026-05-05 10:18 31.02600 121.60713 2997 ft 237 kts 287°
2026-05-05 10:18 31.03207 121.58921 2989 ft 237 kts 288°
2026-05-05 10:18 31.03810 121.57138 2993 ft 236 kts 287°
2026-05-05 10:19 31.04413 121.55357 3000 ft 236 kts 288°
2026-05-05 10:19 31.05014 121.53583 2995 ft 235 kts 288°
2026-05-05 10:19 31.05619 121.51792 2993 ft 237 kts 288°
2026-05-05 10:19 31.06220 121.50017 3000 ft 235 kts 288°
2026-05-05 10:20 31.06824 121.48232 2994 ft 237 kts 288°
2026-05-05 10:20 31.07429 121.46446 2996 ft 238 kts 288°
2026-05-05 10:20 31.08036 121.44649 2993 ft 239 kts 288°
2026-05-05 10:20 31.08646 121.42851 2994 ft 237 kts 288°
2026-05-05 10:21 31.09249 121.41069 2995 ft 237 kts 289°
2026-05-05 10:21 31.09940 121.39309 2990 ft 238 kts 293°
2026-05-05 10:21 31.10683 121.37574 2991 ft 239 kts 293°
2026-05-05 10:21 31.11428 121.35835 2990 ft 239 kts 293°
2026-05-05 10:22 31.12183 121.34095 2995 ft 241 kts 295°
2026-05-05 10:22 31.13007 121.32504 2995 ft 241 kts 300°
2026-05-05 10:22 31.13930 121.30879 2994 ft 242 kts 300°
2026-05-05 10:22 31.14861 121.29239 2996 ft 240 kts 300°
2026-05-05 10:23 31.15746 121.27688 2987 ft 227 kts 300°
2026-05-05 10:23 31.16612 121.26162 2990 ft 226 kts 300°
2026-05-05 10:23 31.17483 121.24628 2993 ft 225 kts 300°
2026-05-05 10:23 31.18349 121.23104 2991 ft 226 kts 300°
2026-05-05 10:24 31.19221 121.21566 2995 ft 228 kts 300°
2026-05-05 10:24 31.20181 121.20106 2968 ft 227 kts 320°
2026-05-05 10:24 31.21639 121.19446 3007 ft 230 kts 355°
2026-05-05 10:24 31.23246 121.19329 2988 ft 231 kts 356°
2026-05-05 10:25 31.24851 121.19215 2990 ft 231 kts 356°
2026-05-05 10:25 31.26457 121.19101 2990 ft 231 kts 356°
2026-05-05 10:25 31.28067 121.18986 2995 ft 233 kts 356°
2026-05-05 10:25 31.29659 121.18873 2932 ft 228 kts 356°
2026-05-05 10:26 31.31236 121.18760 2479 ft 228 kts 356°
2026-05-05 10:26 31.32829 121.18647 1991 ft 230 kts 357°
2026-05-05 10:26 31.34430 121.18546 1807 ft 232 kts
2026-05-05 10:26 31.35920 121.19118 1813 ft 227 kts 43°
2026-05-05 10:27 31.36754 121.20509 1755 ft 193 kts 85°
2026-05-05 10:27 31.36963 121.22010 1807 ft 189 kts 86°
2026-05-05 10:27 31.37181 121.23516 1797 ft 187 kts 88°
2026-05-05 10:27 31.37396 121.25017 1787 ft 188 kts 87°
2026-05-05 10:28 31.37612 121.26531 1785 ft 189 kts 86°
2026-05-05 10:28 31.37830 121.28042 1794 ft 188 kts 87°
2026-05-05 10:28 31.38022 121.29574 1792 ft 190 kts 98°
2026-05-05 10:28 31.37587 121.30871 1891 ft 168 kts 144°
2026-05-05 10:29 31.36509 121.31374 1955 ft 171 kts 169°
2026-05-05 10:29 31.35447 121.31981 1667 ft 168 kts 148°
2026-05-05 10:29 31.34475 121.32625 1622 ft 164 kts 162°
2026-05-05 10:29 31.33355 121.32886 1754 ft 165 kts 174°
2026-05-05 10:30 31.32208 121.32960 1790 ft 161 kts 178°
2026-05-05 10:30 31.31163 121.33003 1761 ft 148 kts 176°
2026-05-05 10:30 31.30149 121.33073 1678 ft 145 kts 177°
2026-05-05 10:30 31.29138 121.33116 1489 ft 146 kts 177°
2026-05-05 10:31 31.28129 121.33163 1325 ft 145 kts 175°
2026-05-05 10:31 31.27147 121.33231 1137 ft 135 kts 175°
2026-05-05 10:31 31.26235 121.33282 986 ft 130 kts 176°
2026-05-05 10:31 31.25317 121.33328 811 ft 133 kts 176°
2026-05-05 10:32 31.25016 121.33347 760 ft 134 kts 176°
2026-05-05 10:32 31.24138 121.33396 583 ft 141 kts 176°
2026-05-05 10:32 31.23150 121.33443 412 ft 141 kts 173°
2026-05-05 10:32 31.22164 121.33501 218 ft 143 kts 175°
2026-05-05 10:33 31.21170 121.33558 49 ft 143 kts 175°
2026-05-05 10:33 31.20270 121.33606 20 ft 115 kts 177°
2026-05-05 10:33 31.19636 121.33640 22 ft 68 kts 177°
2026-05-05 10:33 31.19257 121.33661 22 ft 43 kts 182°
2026-05-05 10:34 31.19030 121.33612 21 ft 30 kts 203°
2026-05-05 10:34 31.18850 121.33512 22 ft 28 kts 206°
2026-05-05 10:34 31.18660 121.33501 21 ft 27 kts 178°
2026-05-05 10:34 31.18470 121.33512 21 ft 27 kts 179°
2026-05-05 10:35 31.18282 121.33520 21 ft 27 kts 177°
2026-05-05 10:35 31.18092 121.33531 21 ft 27 kts 177°
2026-05-05 10:35 31.17900 121.33542 21 ft 28 kts 177°
2026-05-05 10:35 31.17768 121.33474 21 ft 22 kts 259°
2026-05-05 10:36 31.17758 121.33295 21 ft 23 kts 266°
2026-05-05 10:36 31.17823 121.33142 21 ft 23 kts 325°
2026-05-05 10:36 31.17964 121.33050 22 ft 23 kts
2026-05-05 10:36 31.18131 121.33051 21 ft 25 kts 359°
2026-05-05 10:37 31.18305 121.33053 21 ft 26 kts
2026-05-05 10:37 31.18486 121.33044 21 ft 26 kts 356°
2026-05-05 10:37 31.18672 121.33035 23 ft 27 kts 358°
2026-05-05 10:37 31.18865 121.33024 21 ft 28 kts 357°
2026-05-05 10:38 31.19065 121.33017 21 ft 29 kts 359°
2026-05-05 10:38 31.19247 121.33004 21 ft 23 kts 359°
2026-05-05 10:38 31.19374 121.32972 21 ft 13 kts 288°
2026-05-05 10:38 31.19386 121.32883 21 ft 6 kts 275°
2026-05-05 10:39 31.19387 121.32876 21 ft 0 kts 275°